Location: Eaton
(41.3139°N, 82.0207°W)
Time: 06:20:20
(UTC+00:00)

Cosmos 2285 Rocket - Pass Details

Date: 04 November 2021
Orbit: 970 x 1000 km, 74.0° (Epoch: 06 December)

Event Time Altitude Azimuth Distance (km) Brightness Sun altitude
Rises 10:57:04 0° 343° (NNW) 3,729 6.8 -12.9°
Reaches altitude 10° 10:59:41 10° 347° (NNW) 2,777 6.2 -12.4°
Maximum altitude 11:06:04 61° 67° (ENE) 1,123 4.6 -11.2°
Drops below altitude 10° 11:12:25 10° 148° (SSE) 2,757 7.0 -10.0°
Sets 11:14:59 0° 151° (SSE) 3,700 7.7 -9.6°
